Other Public Products
Issued by NWS Grand Forks, ND

Home | Current Version | Previous Version | Graphics & Text | Print | Product List | Glossary On
Versions: 1 2 3 4 5 6 7 8 9 10 11 12 13 14 15 16 17 18 19 20 21 22 23 24 25 26 27 28 29 30 31 32 33 34 35 36 37 38 39 40 41 42 43 44 45 46 47 48 49 50
000
FPUS83 KFGF 031110
OPUFGF
PRAIRIE TO PINES WEATHER ROUNDUP
NATIONAL WEATHER SERVICE EASTERN NORTH DAKOTA/GRAND FORKS ND
500 AM CST TUE MAR 03 2015

 **SATELLITE DATA USED TO AUGMENT SKY COVER AT AUTOMATED STATIONS**
 *****  WEATHER ACROSS EASTERN NORTH DAKOTA  *****

CITY           SKY/WX    TMP DP  RH WIND       PRES   REMARKS
GRAND FORKS    CLOUDY    19  12  74 NW17G23   29.75F WCI   4
GRAND FORKS AF CLOUDY    18  10  72 NW17      29.76S WCI   2
GRAND CITY NWS   N/A     18 N/A N/A NW15        N/A  WCI   3
BUXTON         NOT AVBL
DEVILS LAKE    MOCLDY    12   3  67 NW20      29.79F WCI  -6
FARGO          LGT SNOW  23  16  74 NW24G31   29.73S WCI   7
WAHPETON ARPT  CLOUDY    27  23  86 CALM      29.69F VSB 3/4
$$

 *****  WEATHER ACROSS CENTRAL AND WESTERN NORTH DAKOTA  *****

CITY           SKY/WX    TMP DP  RH WIND       PRES   REMARKS
JAMESTOWN      MIX PCPN  15   9  76 NW22G32   29.79R WCI  -3
BISMARCK       CLOUDY    12   0  58 NW22G36   29.94R WCI  -7
MINOT          FLURRIES   3  -5  69 W23G30    29.94R WCI -19
MINOT AFB      CLEAR      3  -3  75 NW25      29.93R WCI -20
GARRISON         N/A      5  -2  72 NW24      29.94R WCI -17
WILLISTON      PTCLDY     3  -5  69 W9        30.07R WCI -12
DICKINSON      CLOUDY     9  -5  53 NW26G36   29.93R WCI -13
HETTINGER      CLOUDY    11   1  64 N24G35    29.92R WCI  -9
$$

 *****  OTHER OBSERVATIONS NORTHEAST NORTH DAKOTA  *****

CITY           SKY/WX    TMP DP  RH WIND       PRES   REMARKS
WALHALLA       LGT SNOW  14  14 100 NW16G23   29.80R WCI  -2
LANGDON        NOT AVBL
CAVALIER       CLOUDY    16   9  73 NW18      29.78R WCI  -1
GRAFTON        NOT AVBL
CANDO          PTSUNNY    9   1  72 NW24G33   29.82S WCI -12
FORT TOTTEN      N/A     11   4  74 NW12      29.95  WCI  -3
ROLLA          FAIR       5   0  78 NW29      29.80S WCI -19
RUGBY          FAIR       5   0  78 NW26G33   29.86R WCI -18
 ***** THE ABOVE OBSERVATIONS ARE NON NWS ARE NOT QUALITY
        CONTROLLED AND MAY MIS-REPORT RAIN FOR SNOW...
$$

 *****  OTHER OBSERVATIONS SOUTHEAST NORTH DAKOTA *****

CITY           SKY/WX    TMP DP  RH WIND       PRES   REMARKS
COOPERSTOWN    NOT AVBL
VALLEY CITY    FLURRIES  18  14  86 N22G36    29.77R WCI   0
OAKES          LGT SNOW  18  16  93 NW30G38   29.74R WCI  -2
GWINNER        PTSUNNY   23  19  86 N24       29.73S WCI   7
SHEYENNE NWR     N/A     22  17  80 N14       29.95S WCI   9
BUFFALO        NOT AVBL
WYNDMERE         N/A     23  21  93 N17         N/A  WCI   9
 ***** THE ABOVE OBSERVATIONS ARE NON NWS ARE NOT QUALITY
       CONTROLLED AND MAY MIS-REPORT RAIN FOR SNOW...
$$

  *****  WEATHER ACROSS NORTHERN MINNESOTA  *****

CITY           SKY/WX    TMP DP  RH WIND       PRES   REMARKS
FLAG ISLAND    CLOUDY    25  18  74 W12       29.60F WCI  14
WARROAD        CLOUDY    21  18  86 W9        29.65S WCI  11
ROSEAU         CLOUDY    21  16  79 W8        29.66S WCI  12
HALLOCK        NOT AVBL
THF RVR FALLS  CLOUDY    19  16  86 NW22      29.70S WCI   3
HALSTAD        NOT AVBL
FOSSTON        LGT SNOW  23  19  86 SW12      29.68F WCI  12
BAUDETTE       CLOUDY    25  19  78 W12       29.62F WCI  14
WASKISH        CLOUDY    27  19  74 CALM      29.65F
CROOKSTON      CLOUDY    19  16  86 N16       29.74F WCI   5
$$
  *****  WEATHER ACROSS CENTRAL AND WEST MINNESOTA  *****

CITY           SKY/WX    TMP DP  RH WIND       PRES   REMARKS
BEMIDJI        FLURRIES  24  19  83 SW8       29.66F WCI  15
PARK RAPIDS    LGT SNOW  23  20  88 S8        29.67F FOG     WCI  14
WADENA         LGT SNOW  21  19  93 S5        29.69F WCI  15
DETROIT LAKES  LGT SNOW  27  25  93 SW6       29.68F WCI  20
MOORHEAD       LGT RAIN  25  21  86 NW20G26   29.72F WCI  11
FERGUS FALLS   LGT SNOW  25  21  86 SW6       29.73F WCI  18
ELBOW LAKE     LGT SNOW  22  21  96 S16       29.68F WCI   8
MORRIS MN      SNOW      23  21  93 S14       29.69F VSB 1/2 WCI  11
STAPLES        LGT SNOW  19  19 100 S12       29.70F WCI   7
WHEATON        LGT SNOW  21  21 100 SE12      29.71F WCI   9
$$
  *****  WEATHER ELSEWHERE ACROSS MINNESOTA  *****

CITY           SKY/WX    TMP DP  RH WIND       PRES   REMARKS
DULUTH         LGT SNOW  20  15  81 S9        29.75F VSB 3/4 WCI   9
INTRNTL FALLS  CLOUDY    24  15  68 SW8       29.65F WCI  15
ELY            LGT SNOW  19  12  73 SW10      29.72R WCI   8
CLOQUET        LGT SNOW  19  18  93 S7        29.77S WCI  10
BRAINERD       LGT SNOW  20  17  88 S13       29.73F VSB 3/4 WCI   7
HIBBING        LGT SNOW  19  14  81 S7        29.72F WCI  10
ALEXANDRIA     SNOW      21  19  92 S10       29.69F VSB 1/2 WCI  10
SAINT CLOUD    CLOUDY    21  14  74 SE8       29.76F WCI  11
MINNEAPOLIS    CLOUDY    22  12  65 SE8       29.80F WCI  12
$$

  *****  WEATHER ACROSS SOUTH DAKOTA  *****

CITY           SKY/WX    TMP DP  RH WIND       PRES   REMARKS
SIOUX FALLS    CLOUDY    25  19  78 S7        29.66F WCI  17
BROOKINGS      NOT AVBL
WATERTOWN      LGT SNOW  24  21  88 S6        29.64F VSB 1   WCI  17
HURON          SNOW      25  24  96 SW3       29.68R VSB 1/2
SISSETON         N/A     27  26  96 N6        29.69R WCI  20
ABERDEEN       LGT SNOW  21  16  81 N26       29.74R VSB 1   WCI   4
MITCHELL       LGT SNOW  27  21  78 S3        29.68R
PIERRE         HAZE      19  14  81 N33G48    29.76R VSB 3/4 WCI  -1
MOBRIDGE       LGT SNOW  18  11  74 N25G35    29.80R WCI   0
RAPID CITY     FOG       16  12  84 N38G47    29.85R VSB 1/2 WCI  -6
$$

  *****  SOME WEATHER IN NEARBY STATES *****

CITY           SKY/WX    TMP DP  RH WIND       PRES   REMARKS
GLASGOW MT     CLEAR      7  -6  55 NW17G30   30.14S WCI -12
GREAT FALLS MT CLOUDY     2  -2  83 NE5       30.20S WCI  -8
CHEYENNE WY    LGT SNOW  22  17  81 N24G40    29.66R WCI   5
SCOTTSBLUFF NE LGT SNOW  27  22  81 N20       29.76R WCI  13
OMAHA NE       FRZ DRZL  31  28  89 S14       29.67F WCI  21
DES MOINES IA  FRZ DRZL  30  25  81 S13       29.75F WCI  20
DAVENPORT IA   FRZ RAIN  28  25  88 S20       29.89F FOG     WCI  15
CHICAGO IL     LGT SNOW  24  21  88 SE10      30.03F VSB 3/4 WCI  14
EAU CLAIRE WI  CLOUDY    22  13  68 SE6       29.84F WCI  14
LA CROSSE WI   LGT SNOW  25  17  72 SE8       29.86F WCI  16
$$

  *****  SOME NATIONAL WEATHER *****

CITY           SKY/WX    TMP DP  RH WIND       PRES   REMARKS
LA GUARDIA NY  PTCLDY    24   9  52 NW6       30.41S WCI  17
RALEIGH NC     CLOUDY    39  23  52 E10       30.37R
ATLANTA GA     DRIZZLE   53  47  79 E3        30.21R
NEW ORLEANS LA FOG       66  64  93 S5        30.12S VSB 1/4
OKLAHOMA CITY  CLOUDY    39  36  89 S24G31    29.89F FOG
ALBUQUERQUE NM CLOUDY    42  29  59 SW8       29.93S
SALT LAKE CITY CLOUDY    35  32  88 CALM      29.79R
LOS ANGELES CA PTCLDY    50  44  80 NE8       29.94F
BOISE ID       CLOUDY    33  23  66 NW16      29.90R WCI  23
SEATTLE WA     CLEAR     36  31  82 E5        30.19R
$$

*** WEATHER ACROSS MANITOBA...SASKATCHEWAN AND ONTARIO ***
                ***ONTARIO***

CITY           SKY/WX    TMP DP  RH WIND       PRES   REMARKS
GERALDTON      CLOUDY    12   9  85 S5        29.73F WCI   4
THUNDER BAY    CLOUDY    19  10  68 SW3       29.78F
SIOUX LOOKOUT  FLURRIES  21  10  63 SW10      29.58F WCI  10
TORONTO        MOCLDY    10   5  79 CALM      30.31F
BIG TROUT LK   LGT SNOW  12  10  92 S8        29.50F WCI   1
PICKLE LAKE    LGT SNOW  14  10  85 S9        29.53  WCI   2
DRYDEN         FLURRIES  21  14  73 SW14      29.56F WCI   8
KENORA         FLURRIES  21  18  86 SW8       29.57F WCI  12
$$
                *** MANITOBA***

CITY           SKY/WX    TMP DP  RH WIND       PRES   REMARKS
BRANDON        CLEAR      1  -6  71 NW16G22   29.86R WCI -18
DAUPHIN        FLURRIES   7  -4  61 NW18G24   29.86S WCI -12
ISLAND LAKE    LGT SNOW   9   3  78 NW17G31   29.49R DRFTSNOWWCI -10
PILOT MOUND      N/A      5   1  85 NW24G31     N/A  WCI -17
THE PAS        MOCLDY    -4 -11  71 NW18G25   29.89R WCI -26
THOMPSON       NOT AVBL
WINNIPEG       PTCLDY     9   3  78 NW24G32   29.77R WCI -12
LYNN LAKE      LGT SNOW -15 -24  64 NW16G25   29.83S WCI -39
CHURCHILL      MOCLDY    -8 -13  77 NE18      29.85R WCI -31
GILLAM         LGT SNOW   0  -6  78 N15       29.57R VSB 3/4 WCI -20
$$
                ***SASKATCHEWAN***

CITY           SKY/WX    TMP DP  RH WIND       PRES   REMARKS
ESTEVAN        PTCLDY    -2  -8  78 NW17      29.98R WCI -24
KINDERSLEY     PTCLDY    -4 -11  71 NW12      30.17F WCI -22
LLOYDMINSTER   PTCLDY    -6 -13  71 W12       30.16S WCI -24
PRINCE ALBERT  NOT AVBL
REGINA         PTCLDY    -4  -9  77 NW18      30.04S WCI -26


USA.gov is the U.S. government's official web portal to all federal, state and local government web resources and services.